QPF
0.01 0.01 0.02 0.02 0.02 0.03 0.03 0.04 0.04 0.04 0.04 0.04 0.04 0.03 0.03 0.03 0.03 0.03 0.04 0.04 0.05 0.06 0.05 0.05 0.05 0.04 0.03 0.02 0.02 0.02 0.02 0.03 0.03 0.02 0.02 0.02 0.02 0.03 0.03 0.02 0.02 0.02 0.02
0.01 0.01 0.02 0.02 0.02 0.03 0.03 0.03 0.03 0.03 0.03 0.03 0.03 0.04 0.03 0.03 0.03 0.03 0.03 0.03 0.04 0.06 0.06 0.05 0.05 0.04 0.03 0.02 0.02 0.02 0.02 0.02 0.03 0.02 0.02 0.02 0.02 0.02 0.02 0.02 0.02 0.02 0.02
0.04 0.02 0.01 0.01 0.02 0.02 0.03 0.03 0.03 0.02 0.02 0.02 0.02 0.03 0.04 0.04 0.03 0.03 0.03 0.03 0.04 0.04 0.06 0.05 0.03 0.03 0.02 0.02 0.02 0.02 0.02 0.02 0.02 0.02 0.02 0.02 0.03 0.03 0.02 0.02 0.02 0.02 0.02
0.05 0.04 0.02 0.02 0.02 0.02 0.03 0.03 0.03 0.02 0.02 0.02 0.02 0.02 0.03 0.03 0.04 0.04 0.04 0.04 0.04 0.05 0.05 0.05 0.04 0.03 0.02 0.02 0.01 0.01 0.02 0.02 0.01 0.02 0.02 0.02 0.03 0.03 0.03 0.03 0.03 0.02 0.02
0.06 0.06 0.04 0.04 0.03 0.03 0.03 0.04 0.03 0.03 0.03 0.02 0.01 0.02 0.02 0.03 0.04 0.04 0.04 0.04 0.04 0.05 0.04 0.05 0.05 0.05 0.04 0.03 0.02 0.03 0.02 0.02 0.02 0.02 0.02 0.02 0.03 0.03 0.03 0.03 0.04 0.04 0.03
0.05 0.04 0.04 0.04 0.04 0.04 0.04 0.04 0.04 0.04 0.04 0.04 0.02 0.02 0.03 0.03 0.05 0.05 0.05 0.05 0.04 0.04 0.04 0.04 0.04 0.05 0.05 0.05 0.04 0.04 0.04 0.03 0.03 0.03 0.03 0.02 0.02 0.02 0.02 0.02 0.03 0.04 0.04
0.03 0.03 0.03 0.03 0.03 0.03 0.04 0.04 0.04 0.04 0.04 0.04 0.03 0.03 0.03 0.03 0.04 0.05 0.05 0.05 0.05 0.05 0.05 0.04 0.04 0.04 0.04 0.04 0.04 0.04 0.03 0.03 0.03 0.03 0.03 0.02 0.02 0.02 0.02 0.02 0.02 0.03 0.03
0.03 0.03 0.03 0.03 0.03 0.03 0.04 0.04 0.04 0.04 0.04 0.04 0.04 0.04 0.04 0.04 0.04 0.05 0.06 0.05 0.05 0.05 0.04 0.04 0.04 0.03 0.03 0.04 0.03 0.03 0.02 0.02 0.02 0.02 0.02 0.01 0.01 0.01 0.01 0.02 0.02 0.03 0.03
0.03 0.03 0.03 0.03 0.03 0.03 0.04 0.04 0.04 0.04 0.04 0.04 0.04 0.05 0.05 0.06 0.07 0.07 0.07 0.06 0.05 0.04 0.04 0.04 0.04 0.04 0.04 0.03 0.02 0.02 0.02 0.01 0.01 0.01 0.01 0.01 0.01 0.01 0.01 0.02 0.02 0.03 0.03
0.03 0.03 0.03 0.04 0.04 0.04 0.04 0.04 0.04 0.04 0.04 0.05 0.05 0.05 0.05 0.05 0.06 0.05 0.05 0.05 0.05 0.04 0.03 0.03 0.04 0.03 0.03 0.02 0.02 0.01 0.01 0.01 0.01 0.01 0.01 0.01 0.01 0.01 0.01 0.02 0.02 0.02 0.02
0.04 0.04 0.03 0.04 0.04 0.04 0.04 0.04 0.04 0.04 0.04 0.04 0.04 0.04 0.04 0.04 0.04 0.04 0.04 0.04 0.04 0.03 0.02 0.02 0.02 0.02 0.02 0.02 0.02 0.01 0.01 0.01 0.01 0.01 0.01 0.01 0.01 0.01 0.01 0.01 0.01 0.01 0.02
0.04 0.03 0.04 0.04 0.04 0.04 0.04 0.04 0.04 0.03 0.03 0.04 0.03 0.03 0.03 0.03 0.03 0.03 0.03 0.03 0.03 0.03 0.03 0.02 0.02 0.02 0.02 0.02 0.02 0.02 0.01 0.01 0.01 0.01 0.01 0.01 0.01 0.01 0.01 0.01 0.01 0.01 0.02
0.03 0.03 0.04 0.04 0.05 0.04 0.04 0.04 0.04 0.04 0.04 0.03 0.03 0.03 0.03 0.02 0.02 0.02 0.02 0.02 0.02 0.02 0.02 0.02 0.02 0.03 0.02 0.02 0.02 0.02 0.01 0.01 0.01 0.02 0.02 0.02 0.01 0.01 0.02 0.01 0.01 0.02 0.02
0.03 0.03 0.04 0.04 0.05 0.05 0.05 0.05 0.04 0.04 0.04 0.03 0.02 0.02 0.02 0.02 0.01 0.01 0.01 0.02 0.02 0.02 0.02 0.02 0.02 0.02 0.02 0.02 0.02 0.01 0.01 0.01 0.02 0.02 0.02 0.02 0.02 0.02 0.02 0.02 0.02 0.02 0.02
0.05 0.04 0.05 0.05 0.05 0.05 0.05 0.05 0.04 0.04 0.04 0.03 0.03 0.02 0.02 0.02 0.01 0.01 0.01 0.01 0.01 0.02 0.03 0.03 0.04 0.03 0.03 0.02 0.02 0.02 0.02 0.02 0.02 0.02 0.02 0.03 0.03 0.03 0.03 0.03 0.03 0.04 0.04
0.05 0.05 0.05 0.05 0.05 0.05 0.05 0.05 0.05 0.05 0.04 0.03 0.03 0.02 0.02 0.02 0.01 0.02 0.02 0.02 0.02 0.02 0.03 0.03 0.03 0.04 0.03 0.03 0.02 0.02 0.02 0.02 0.02 0.02 0.02 0.02 0.03 0.03 0.03 0.04 0.04 0.04 0.04
0.04 0.05 0.05 0.05 0.05 0.04 0.03 0.03 0.04 0.04 0.03 0.03 0.03 0.02 0.02 0.02 0.02 0.02 0.02 0.02 0.03 0.03 0.03 0.03 0.03 0.03 0.03 0.02 0.02 0.02 0.02 0.01 0.01 0.02 0.02 0.02 0.02 0.02 0.02 0.03 0.03 0.04 0.03
0.04 0.05 0.05 0.04 0.04 0.04 0.04 0.03 0.02 0.02 0.02 0.02 0.02 0.02 0.02 0.02 0.02 0.02 0.02 0.02 0.02 0.03 0.03 0.03 0.03 0.03 0.03 0.02 0.02 0.02 0.02 0.01 0.01 0.01 0.02 0.02 0.02 0.03 0.03 0.02 0.03 0.03 0.03
0.04 0.05 0.04 0.04 0.04 0.04 0.04 0.04 0.03 0.02 0.02 0.02 0.02 0.02 0.03 0.02 0.02 0.02 0.02 0.02 0.02 0.02 0.02 0.02 0.03 0.03 0.03 0.02 0.02 0.02 0.02 0.02 0.02 0.02 0.02 0.02 0.02 0.03 0.03 0.03 0.02 0.03 0.03
0.03 0.05 0.04 0.05 0.05 0.05 0.04 0.04 0.03 0.02 0.02 0.02 0.02 0.02 0.02 0.02 0.02 0.02 0.02 0.02 0.02 0.02 0.02 0.02 0.02 0.02 0.02 0.02 0.02 0.02 0.02 0.02 0.02 0.02 0.02 0.02 0.02 0.03 0.03 0.02 0.02 0.03 0.03
0.03 0.03 0.04 0.03 0.04 0.03 0.03 0.03 0.03 0.02 0.02 0.02 0.02 0.02 0.02 0.02 0.02 0.02 0.02 0.01 0.01 0.01 0.01 0.02 0.02 0.02 0.02 0.02 0.02 0.01 0.02 0.02 0.02 0.02 0.02 0.02 0.02 0.02 0.02 0.02 0.02 0.02 0.03
0.02 0.02 0.02 0.02 0.02 0.02 0.02 0.02 0.02 0.02 0.02 0.02 0.02 0.02 0.02 0.01 0.01 0.01 0.01 0.01 0.01 0.01 0.01 0.02 0.02 0.01 0.01 0.02 0.02 0.02 0.02 0.01 0.01 0.01 0.01 0.02 0.02 0.02 0.02 0.02 0.02 0.02 0.02
0.01 0.01 0.02 0.02 0.02 0.01 0.01 0.01 0.01 0.01 0.01 0.01 0.01 0.02 0.01 0.01 0.01 0.01 0.01 0.01 0.01 0.01 0.01 0.01 0.02 0.01 0.01 0.02 0.02 0.02 0.02 0.01 0.01 0.01 0.02 0.02 0.02 0.02 0.02 0.02 0.02 0.02 0.02
0.01 0.01 0.01 0.01 0.01 0.01 0.01 0.01 0.01 0.01 0.01 0.01 0.01 0.01 0.01 0.01 0.01 0.01 0.01 0.01 0.01 0.01 0.01 0.01 0.01 0.01 0.02 0.02 0.02 0.01 0.01 0.01 0.01 0.02 0.02 0.02 0.02 0.02 0.02 0.02 0.02 0.02 0.02
0.00 0.00 0.00 0.00 0.01 0.01 0.01 0.01 0.01 0.01 0.01 0.01 0.01 0.01 0.01 0.01 0.01 0.01 0.01 0.01 0.01 0.01 0.01 0.01 0.01 0.01 0.01 0.02 0.02 0.01 0.01 0.01 0.02 0.02 0.02 0.02 0.02 0.02 0.02 0.02 0.02 0.02 0.02
0.00 0.00 0.00 0.00 0.01 0.01 0.01 0.01 0.01 0.00 0.01 0.01 0.00 0.01 0.00 0.00 0.00 0.00 0.00 0.00 0.00 0.00 0.01 0.01 0.01 0.01 0.01 0.01 0.02 0.02 0.02 0.01 0.01 0.02 0.02 0.02 0.02 0.02 0.02 0.02 0.02 0.02 0.02
MSLP
1012.95 1013.21 1013.51 1013.82 1014.08 1014.30 1014.45 1014.56 1014.64 1014.71 1014.77 1014.83 1014.87 1014.88 1014.84 1014.76 1014.62 1014.44 1014.25 1014.08 1013.96 1013.91 1013.94 1014.06 1014.27 1014.55 1014.89 1015.27 1015.69 1016.14 1016.60 1017.09 1017.59 1018.09 1018.59 1019.06 1019.49 1019.88 1020.21 1020.48 1020.72 1020.93 1021.13
1012.60 1012.83 1013.11 1013.41 1013.68 1013.91 1014.10 1014.24 1014.37 1014.48 1014.59 1014.70 1014.79 1014.85 1014.87 1014.83 1014.75 1014.62 1014.47 1014.33 1014.22 1014.17 1014.19 1014.29 1014.47 1014.72 1015.03 1015.39 1015.79 1016.22 1016.69 1017.18 1017.69 1018.21 1018.74 1019.24 1019.71 1020.13 1020.50 1020.81 1021.07 1021.30 1021.52
1012.42 1012.60 1012.85 1013.11 1013.35 1013.57 1013.76 1013.92 1014.06 1014.21 1014.35 1014.51 1014.65 1014.77 1014.85 1014.88 1014.87 1014.81 1014.72 1014.63 1014.56 1014.53 1014.55 1014.63 1014.78 1014.99 1015.26 1015.58 1015.94 1016.34 1016.78 1017.26 1017.77 1018.29 1018.83 1019.35 1019.85 1020.30 1020.70 1021.04 1021.34 1021.60 1021.84
1012.41 1012.53 1012.71 1012.91 1013.10 1013.28 1013.44 1013.58 1013.73 1013.89 1014.06 1014.25 1014.44 1014.62 1014.77 1014.89 1014.95 1014.98 1014.98 1014.95 1014.93 1014.93 1014.96 1015.03 1015.15 1015.32 1015.53 1015.79 1016.10 1016.45 1016.85 1017.30 1017.78 1018.30 1018.83 1019.36 1019.87 1020.35 1020.77 1021.15 1021.48 1021.78 1022.06
1012.56 1012.60 1012.69 1012.80 1012.92 1013.03 1013.14 1013.25 1013.38 1013.54 1013.73 1013.95 1014.18 1014.42 1014.64 1014.83 1014.98 1015.10 1015.18 1015.23 1015.27 1015.31 1015.36 1015.43 1015.52 1015.65 1015.80 1016.00 1016.25 1016.55 1016.90 1017.30 1017.76 1018.25 1018.77 1019.29 1019.80 1020.29 1020.73 1021.14 1021.51 1021.85 1022.17
1012.82 1012.77 1012.76 1012.77 1012.79 1012.82 1012.86 1012.93 1013.03 1013.18 1013.38 1013.61 1013.88 1014.16 1014.44 1014.70 1014.93 1015.13 1015.29 1015.42 1015.53 1015.61 1015.69 1015.76 1015.84 1015.93 1016.05 1016.20 1016.39 1016.64 1016.94 1017.30 1017.71 1018.17 1018.67 1019.17 1019.68 1020.16 1020.62 1021.05 1021.45 1021.82 1022.18
1013.16 1013.02 1012.89 1012.79 1012.70 1012.64 1012.62 1012.64 1012.71 1012.84 1013.03 1013.27 1013.55 1013.86 1014.17 1014.48 1014.78 1015.04 1015.28 1015.48 1015.64 1015.78 1015.89 1015.99 1016.07 1016.16 1016.25 1016.37 1016.53 1016.74 1017.00 1017.32 1017.70 1018.13 1018.60 1019.08 1019.57 1020.05 1020.51 1020.95 1021.37 1021.77 1022.17
1013.54 1013.29 1013.05 1012.83 1012.65 1012.50 1012.41 1012.38 1012.42 1012.53 1012.70 1012.93 1013.21 1013.53 1013.86 1014.19 1014.52 1014.83 1015.11 1015.36 1015.59 1015.78 1015.94 1016.08 1016.19 1016.30 1016.40 1016.52 1016.67 1016.87 1017.12 1017.42 1017.78 1018.19 1018.63 1019.09 1019.56 1020.03 1020.48 1020.92 1021.35 1021.77 1022.19
1013.92 1013.56 1013.21 1012.89 1012.61 1012.40 1012.25 1012.18 1012.19 1012.27 1012.43 1012.64 1012.90 1013.19 1013.51 1013.84 1014.17 1014.49 1014.81 1015.10 1015.38 1015.62 1015.84 1016.04 1016.21 1016.36 1016.51 1016.66 1016.84 1017.06 1017.31 1017.62 1017.98 1018.38 1018.81 1019.25 1019.71 1020.16 1020.60 1021.03 1021.45 1021.87 1022.30
1014.28 1013.81 1013.36 1012.95 1012.61 1012.34 1012.16 1012.06 1012.04 1012.10 1012.23 1012.41 1012.63 1012.89 1013.17 1013.46 1013.77 1014.09 1014.41 1014.73 1015.05 1015.35 1015.63 1015.89 1016.14 1016.36 1016.58 1016.80 1017.03 1017.29 1017.59 1017.92 1018.30 1018.71 1019.14 1019.58 1020.02 1020.46 1020.89 1021.30 1021.71 1022.11 1022.52
1014.61 1014.05 1013.52 1013.05 1012.66 1012.36 1012.15 1012.03 1012.00 1012.04 1012.13 1012.27 1012.45 1012.65 1012.87 1013.12 1013.39 1013.68 1013.99 1014.33 1014.67 1015.02 1015.36 1015.70 1016.02 1016.33 1016.63 1016.93 1017.24 1017.57 1017.92 1018.30 1018.71 1019.14 1019.59 1020.03 1020.48 1020.91 1021.32 1021.72 1022.10 1022.48 1022.86
1014.92 1014.30 1013.72 1013.21 1012.79 1012.48 1012.26 1012.14 1012.09 1012.10 1012.17 1012.26 1012.38 1012.52 1012.68 1012.87 1013.08 1013.34 1013.63 1013.97 1014.33 1014.72 1015.12 1015.52 1015.92 1016.31 1016.70 1017.08 1017.47 1017.86 1018.27 1018.71 1019.16 1019.62 1020.09 1020.55 1021.00 1021.43 1021.84 1022.22 1022.58 1022.92 1023.26
1015.26 1014.60 1014.00 1013.47 1013.05 1012.73 1012.52 1012.39 1012.33 1012.33 1012.35 1012.41 1012.47 1012.54 1012.64 1012.77 1012.94 1013.15 1013.42 1013.74 1014.12 1014.53 1014.97 1015.43 1015.89 1016.34 1016.80 1017.25 1017.69 1018.15 1018.61 1019.09 1019.58 1020.08 1020.57 1021.06 1021.52 1021.95 1022.35 1022.72 1023.07 1023.38 1023.68
1015.65 1014.99 1014.39 1013.88 1013.47 1013.16 1012.95 1012.82 1012.75 1012.73 1012.72 1012.73 1012.74 1012.76 1012.81 1012.88 1013.00 1013.18 1013.42 1013.73 1014.10 1014.53 1014.99 1015.47 1015.96 1016.46 1016.95 1017.44 1017.92 1018.41 1018.91 1019.42 1019.93 1020.45 1020.96 1021.47 1021.94 1022.39 1022.79 1023.16 1023.49 1023.78 1024.06
1016.14 1015.51 1014.93 1014.45 1014.06 1013.77 1013.57 1013.44 1013.36 1013.30 1013.27 1013.24 1013.21 1013.19 1013.19 1013.22 1013.31 1013.46 1013.68 1013.97 1014.33 1014.75 1015.20 1015.69 1016.18 1016.68 1017.17 1017.66 1018.15 1018.64 1019.15 1019.65 1020.17 1020.70 1021.22 1021.73 1022.22 1022.67 1023.08 1023.45 1023.78 1024.07 1024.33
1016.75 1016.16 1015.64 1015.19 1014.84 1014.56 1014.37 1014.23 1014.13 1014.05 1013.98 1013.92 1013.86 1013.81 1013.78 1013.79 1013.86 1013.98 1014.18 1014.46 1014.80 1015.19 1015.62 1016.07 1016.54 1017.01 1017.47 1017.93 1018.39 1018.85 1019.32 1019.81 1020.31 1020.82 1021.33 1021.84 1022.32 1022.78 1023.21 1023.59 1023.93 1024.22 1024.47
1017.47 1016.95 1016.48 1016.08 1015.75 1015.49 1015.29 1015.14 1015.02 1014.92 1014.82 1014.73 1014.65 1014.58 1014.54 1014.54 1014.59 1014.71 1014.89 1015.14 1015.45 1015.80 1016.19 1016.59 1017.01 1017.42 1017.82 1018.22 1018.63 1019.04 1019.46 1019.90 1020.36 1020.84 1021.33 1021.82 1022.30 1022.76 1023.18 1023.58 1023.93 1024.23 1024.50
1018.26 1017.81 1017.40 1017.04 1016.74 1016.49 1016.28 1016.11 1015.97 1015.84 1015.72 1015.61 1015.51 1015.44 1015.39 1015.39 1015.44 1015.54 1015.71 1015.93 1016.20 1016.51 1016.84 1017.18 1017.53 1017.87 1018.20 1018.53 1018.87 1019.21 1019.57 1019.96 1020.37 1020.80 1021.26 1021.72 1022.18 1022.63 1023.06 1023.46 1023.82 1024.14 1024.43
1019.08 1018.70 1018.34 1018.01 1017.73 1017.48 1017.26 1017.07 1016.90 1016.75 1016.61 1016.49 1016.39 1016.31 1016.26 1016.26 1016.30 1016.40 1016.54 1016.73 1016.96 1017.21 1017.48 1017.76 1018.03 1018.30 1018.56 1018.83 1019.09 1019.38 1019.68 1020.01 1020.37 1020.75 1021.16 1021.59 1022.03 1022.46 1022.88 1023.28 1023.65 1023.99 1024.29
1019.88 1019.55 1019.22 1018.92 1018.65 1018.39 1018.16 1017.95 1017.76 1017.59 1017.44 1017.31 1017.20 1017.13 1017.08 1017.08 1017.12 1017.20 1017.32 1017.47 1017.65 1017.84 1018.05 1018.26 1018.46 1018.66 1018.86 1019.07 1019.28 1019.52 1019.77 1020.06 1020.37 1020.72 1021.09 1021.48 1021.89 1022.30 1022.70 1023.09 1023.45 1023.80 1024.11
1020.62 1020.31 1020.01 1019.72 1019.45 1019.18 1018.94 1018.72 1018.51 1018.33 1018.17 1018.03 1017.93 1017.86 1017.82 1017.81 1017.83 1017.89 1017.98 1018.08 1018.21 1018.34 1018.49 1018.63 1018.78 1018.92 1019.08 1019.24 1019.42 1019.62 1019.85 1020.11 1020.39 1020.71 1021.05 1021.41 1021.78 1022.16 1022.53 1022.90 1023.26 1023.59 1023.90
1021.26 1020.97 1020.69 1020.40 1020.12 1019.85 1019.59 1019.36 1019.15 1018.96 1018.80 1018.67 1018.56 1018.49 1018.45 1018.43 1018.44 1018.47 1018.51 1018.56 1018.63 1018.70 1018.78 1018.87 1018.96 1019.07 1019.19 1019.33 1019.50 1019.68 1019.90 1020.15 1020.42 1020.72 1021.03 1021.36 1021.70 1022.04 1022.39 1022.72 1023.05 1023.37 1023.66
1021.82 1021.54 1021.25 1020.96 1020.68 1020.40 1020.15 1019.91 1019.69 1019.51 1019.36 1019.23 1019.14 1019.07 1019.02 1018.98 1018.96 1018.94 1018.94 1018.93 1018.93 1018.94 1018.96 1018.99 1019.04 1019.11 1019.21 1019.34 1019.50 1019.69 1019.92 1020.16 1020.43 1020.72 1021.02 1021.32 1021.63 1021.94 1022.24 1022.54 1022.83 1023.11 1023.38
1022.31 1022.03 1021.74 1021.45 1021.17 1020.90 1020.64 1020.41 1020.21 1020.04 1019.89 1019.78 1019.69 1019.61 1019.55 1019.49 1019.43 1019.37 1019.31 1019.24 1019.17 1019.11 1019.07 1019.05 1019.05 1019.09 1019.17 1019.30 1019.46 1019.66 1019.88 1020.14 1020.41 1020.69 1020.97 1021.26 1021.53 1021.80 1022.06 1022.32 1022.56 1022.80 1023.03
1022.76 1022.48 1022.20 1021.92 1021.64 1021.38 1021.14 1020.92 1020.74 1020.58 1020.45 1020.34 1020.26 1020.18 1020.10 1020.01 1019.91 1019.80 1019.67 1019.54 1019.40 1019.27 1019.16 1019.09 1019.05 1019.05 1019.11 1019.22 1019.38 1019.58 1019.81 1020.07 1020.33 1020.60 1020.87 1021.13 1021.37 1021.60 1021.82 1022.03 1022.23 1022.42 1022.60
1023.18 1022.92 1022.65 1022.38 1022.13 1021.88 1021.66 1021.47 1021.30 1021.16 1021.04 1020.94 1020.85 1020.76 1020.66 1020.54 1020.39 1020.23 1020.04 1019.84 1019.64 1019.44 1019.27 1019.14 1019.06 1019.03 1019.05 1019.14 1019.29 1019.47 1019.70 1019.94 1020.19 1020.45 1020.69 1020.92 1021.13 1021.32 1021.50 1021.66 1021.81 1021.95 1022.09
Thickness
5519 5520 5519 5519 5519 5518 5517 5517 5517 5515 5514 5514 5512 5511 5510 5510 5509 5509 5509 5509 5509 5509 5510 5511 5512 5512 5514 5515 5516 5516 5517 5518 5517 5517 5517 5519 5520 5521 5522 5523 5525 5525 5527
5511 5511 5510 5510 5509 5509 5508 5508 5507 5506 5505 5505 5503 5502 5502 5501 5501 5500 5501 5501 5501 5501 5502 5502 5503 5504 5504 5505 5506 5506 5507 5508 5506 5505 5504 5505 5507 5509 5510 5511 5513 5513 5515
5502 5501 5501 5501 5500 5500 5500 5499 5498 5497 5496 5495 5494 5493 5493 5493 5492 5492 5492 5493 5493 5493 5493 5494 5495 5495 5495 5496 5496 5496 5496 5497 5496 5495 5494 5494 5495 5497 5497 5499 5500 5501 5502
5493 5493 5492 5492 5492 5492 5491 5490 5490 5488 5487 5486 5486 5485 5485 5484 5484 5484 5484 5484 5484 5484 5485 5486 5486 5487 5487 5487 5487 5487 5486 5485 5485 5484 5483 5483 5483 5484 5485 5486 5487 5489 5490
5484 5484 5484 5484 5483 5483 5482 5482 5481 5479 5478 5477 5477 5476 5476 5476 5476 5475 5475 5475 5475 5476 5476 5477 5478 5479 5479 5479 5479 5478 5477 5476 5474 5473 5473 5473 5472 5472 5473 5475 5475 5476 5477
5475 5475 5475 5475 5474 5474 5473 5473 5471 5470 5469 5468 5467 5467 5467 5467 5467 5466 5466 5466 5467 5467 5467 5468 5468 5469 5469 5470 5470 5470 5469 5467 5466 5465 5465 5465 5465 5464 5464 5464 5464 5463 5464
5466 5466 5466 5465 5465 5464 5464 5463 5462 5461 5460 5459 5459 5458 5457 5458 5458 5458 5458 5457 5457 5457 5458 5458 5459 5459 5460 5460 5460 5460 5459 5458 5459 5458 5457 5457 5456 5457 5455 5454 5454 5453 5454
5458 5457 5457 5456 5456 5455 5454 5454 5453 5452 5451 5450 5450 5449 5449 5449 5449 5449 5449 5448 5448 5448 5449 5449 5449 5449 5449 5450 5450 5449 5448 5448 5449 5449 5449 5448 5448 5447 5446 5445 5444 5442 5441
5449 5449 5449 5448 5448 5446 5445 5444 5443 5443 5442 5442 5441 5440 5440 5439 5439 5440 5440 5439 5439 5439 5439 5440 5440 5440 5441 5440 5440 5439 5438 5437 5438 5438 5438 5437 5437 5437 5435 5432 5430 5428 5427
5440 5440 5440 5439 5439 5438 5436 5435 5434 5433 5433 5432 5431 5431 5430 5430 5430 5430 5431 5430 5429 5429 5429 5429 5430 5431 5431 5430 5429 5429 5428 5427 5427 5427 5426 5425 5425 5424 5423 5421 5419 5416 5414
5430 5430 5430 5429 5428 5428 5427 5426 5425 5424 5423 5422 5422 5421 5420 5420 5420 5421 5421 5421 5420 5419 5419 5419 5420 5420 5421 5420 5420 5419 5418 5417 5416 5415 5414 5413 5412 5411 5410 5409 5407 5405 5403
5420 5420 5420 5419 5418 5418 5416 5416 5415 5414 5413 5412 5412 5411 5410 5410 5411 5411 5411 5411 5411 5410 5410 5410 5410 5411 5411 5410 5409 5408 5407 5406 5404 5403 5402 5401 5400 5399 5398 5397 5395 5394 5393
5408 5408 5409 5409 5408 5407 5406 5405 5405 5404 5403 5402 5402 5401 5400 5400 5400 5401 5401 5401 5401 5400 5400 5400 5400 5400 5400 5399 5398 5397 5396 5394 5393 5392 5391 5390 5389 5388 5386 5384 5383 5382 5380
5397 5398 5398 5398 5398 5397 5396 5395 5394 5394 5393 5393 5392 5391 5390 5390 5390 5390 5390 5390 5390 5389 5389 5389 5390 5389 5389 5388 5387 5386 5384 5383 5382 5381 5380 5378 5377 5376 5374 5373 5371 5369 5367
5386 5387 5387 5388 5387 5386 5385 5384 5384 5384 5384 5384 5383 5382 5382 5381 5381 5382 5381 5381 5380 5380 5380 5379 5378 5377 5377 5376 5375 5374 5373 5372 5371 5370 5369 5368 5366 5365 5363 5362 5360 5358 5355
5375 5376 5376 5376 5376 5376 5374 5373 5373 5374 5374 5374 5374 5374 5374 5373 5373 5373 5372 5371 5371 5371 5370 5368 5366 5365 5365 5364 5363 5362 5362 5361 5360 5359 5358 5357 5356 5354 5353 5351 5349 5347 5344
5364 5365 5365 5366 5366 5365 5364 5364 5363 5362 5363 5363 5363 5364 5364 5364 5363 5363 5362 5362 5361 5361 5358 5356 5355 5354 5353 5353 5352 5352 5351 5350 5349 5348 5347 5346 5345 5344 5342 5340 5338 5336 5334
5353 5354 5354 5354 5354 5354 5353 5353 5353 5353 5352 5351 5352 5353 5353 5353 5353 5352 5352 5351 5349 5347 5346 5345 5344 5343 5342 5342 5341 5341 5340 5339 5338 5337 5336 5336 5335 5333 5332 5330 5328 5326 5324
5341 5341 5342 5342 5342 5342 5342 5342 5342 5342 5341 5340 5340 5340 5341 5341 5341 5340 5340 5338 5337 5335 5334 5333 5332 5332 5331 5331 5330 5330 5330 5329 5328 5327 5326 5325 5325 5323 5322 5320 5318 5317 5314
5329 5330 5331 5331 5330 5330 5330 5330 5330 5330 5329 5328 5328 5328 5328 5329 5328 5327 5326 5325 5324 5323 5322 5321 5320 5320 5319 5319 5319 5319 5319 5318 5318 5317 5316 5315 5314 5313 5312 5310 5309 5307 5305
5317 5318 5319 5318 5318 5318 5318 5318 5318 5318 5317 5317 5316 5317 5318 5317 5316 5315 5313 5312 5311 5310 5310 5309 5309 5309 5309 5309 5308 5308 5308 5308 5307 5306 5306 5305 5304 5303 5302 5300 5299 5297 5295
5304 5305 5306 5306 5307 5307 5307 5307 5307 5307 5306 5306 5305 5305 5306 5305 5303 5302 5301 5300 5299 5299 5299 5299 5298 5298 5298 5298 5298 5298 5298 5297 5297 5296 5295 5295 5294 5293 5291 5290 5288 5286 5284
5292 5293 5294 5294 5295 5296 5295 5295 5296 5295 5295 5294 5294 5294 5293 5292 5291 5290 5289 5289 5288 5288 5287 5287 5287 5288 5288 5288 5288 5288 5288 5287 5287 5286 5285 5285 5284 5283 5282 5280 5278 5276 5275
5280 5281 5281 5282 5283 5283 5283 5283 5284 5284 5283 5283 5283 5282 5281 5280 5279 5278 5277 5277 5277 5277 5277 5277 5277 5278 5278 5278 5278 5278 5278 5278 5277 5277 5276 5275 5274 5273 5272 5270 5269 5268 5267
5268 5268 5269 5269 5270 5271 5271 5271 5271 5271 5271 5271 5271 5271 5270 5269 5268 5267 5267 5267 5267 5267 5267 5267 5267 5268 5268 5268 5269 5269 5269 5269 5268 5268 5267 5266 5265 5264 5263 5262 5260 5259 5258
5255 5256 5257 5257 5258 5259 5259 5259 5260 5260 5260 5260 5260 5259 5259 5258 5258 5257 5257 5257 5257 5257 5257 5257 5258 5258 5258 5259 5259 5260 5260 5260 5260 5260 5259 5258 5257 5256 5254 5253 5252 5251 5249